GW2646 Weather Reports


time (UTC)temp
C
wind
direction
speed
KPH
gust
KPH
rain 1hr
cm
rain 24hr
cm
rain mn
cm
humidity
%
barometer
mb
20260506165546 12 0 0.0 8.0 0.00 0.00 0.00 92 1019.5
20260506165046 12 165 1.6 8.0 0.00 0.00 0.00 92 1019.5
20260506164615 12 0 0.0 8.0 0.00 0.00 0.00 92 1019.3
20260506164048 12 165 3.2 8.0 0.00 0.00 0.00 92 1019.5
20260506163545 12 0 0.0 8.0 0.00 0.00 0.00 92 1019.6
20260506163108 12 0 3.2 8.0 0.00 0.00 0.00 92 1019.7
20260506162547 12 165 1.6 8.0 0.00 0.00 0.00 92 1019.7
20260506162046 12 165 3.2 11.3 0.00 0.00 0.00 92 1019.6
20260506161553 12 198 1.6 11.3 0.00 0.00 0.00 92 1019.4
20260506161047 12 0 1.6 6.4 0.00 0.00 0.00 92 1019.4
20260506160547 12 197 1.6 11.3 0.00 0.00 0.00 92 1019.3
20260506160107 12 188 4.8 11.3 0.00 0.00 0.00 92 1019.1
20260506155545 12 157 3.2 11.3 0.00 0.00 0.00 93 1019.2
20260506155046 11 187 0.0 11.3 0.00 0.00 0.00 93 1019.2
20260506154557 11 159 1.6 11.3 0.00 0.00 0.00 93 1018.9
20260506154048 11 145 3.2 11.3 0.00 0.00 0.00 93 1018.9
20260506153549 11 156 3.2 8.0 0.00 0.00 0.00 94 1018.9
20260506153054 11 0 1.6 8.0 0.00 0.00 0.00 94 1018.8
20260506152546 11 175 1.6 8.0 0.00 0.00 0.00 94 1018.8
20260506152048 11 180 0.0 8.0 0.00 0.00 0.00 94 1018.8
20260506151553 11 0 3.2 8.0 0.00 0.00 0.00 94 1018.8
20260506151045 11 0 1.6 4.8 0.00 0.00 0.00 94 1019.0
20260506150545 11 0 0.0 3.2 0.00 0.00 0.00 94 1019.1
20260506150103 11 0 0.0 4.8 0.00 0.00 0.00 94 1019.1
20260506145546 11 0 0.0 6.4 0.00 0.00 0.00 94 1019.2
20260506145045 11 0 0.0 6.4 0.00 0.00 0.00 94 1019.2
20260506144553 11 0 1.6 6.4 0.00 0.00 0.00 94 1019.1
20260506144045 11 0 1.6 6.4 0.00 0.00 0.00 95 1018.8
20260506143545 11 214 0.0 6.4 0.00 0.00 0.00 95 1018.8
20260506143051 11 215 0.0 4.8 0.00 0.00 0.00 95 1018.7
20260506142548 11 215 0.0 6.4 0.00 0.00 0.00 95 1018.8
20260506142043 11 214 0.0 6.4 0.00 0.00 0.00 95 1018.9
20260506141552 11 215 0.0 4.8 0.00 0.00 0.00 95 1018.8
20260506141045 11 0 0.0 4.8 0.00 0.00 0.00 95 1018.7
20260506140546 11 0 1.6 4.8 0.00 0.00 0.00 94 1018.8
20260506140056 11 214 0.0 4.8 0.00 0.00 0.00 95 1018.7
20260506135546 11 0 0.0 4.8 0.00 0.00 0.00 95 1018.8
20260506135045 11 0 0.0 3.2 0.00 0.00 0.00 95 1018.7
20260506134555 11 214 0.0 4.8 0.00 0.00 0.00 95 1018.7
20260506134048 11 0 0.0 4.8 0.00 0.00 0.00 95 1018.7
20260506133546 11 215 0.0 4.8 0.00 0.00 0.00 95 1018.8
20260506133106 11 215 0.0 4.8 0.00 0.00 0.00 95 1018.8